Regional Weather Roundup
Issued by NWS

Home | Current Version | Previous Version | Graphics & Text | Print | Product List | Glossary On
Versions: 1 2 3 4 5 6 7 8 9 10 11 12 13 14 15 16 17 18 19 20 21 22 23 24 25 26 27 28 29 30 31 32 33 34 35 36 37 38 39 40 41 42 43 44 45 46 47 48 49 50
929
ASUS43 KIND 081609
RWRIN

WEATHER ROUNDUP FOR INDIANA
NATIONAL WEATHER SERVICE INDIANAPOLIS IN
1100 AM EST MON FEB 08 2016

NOTE: "FAIR" INDICATES FEW OR NO CLOUDS BELOW 12,000 FEET WITH NO
SIGNIFICANT WEATHER AND/OR OBSTRUCTIONS TO VISIBILITY.

* - STATION DOES NOT REPORT WEATHER SUCH AS PRECIPITATION OR FOG.

+ - STATION NOT QUALITY CONTROLLED BY THE NATIONAL WEATHER SERVICE.
    USE DATA WITH CAUTION...ESPECIALLY DEWPOINT AND RELATIVE
    HUMIDITY OBSERVATIONS.

INZ001>003-010>013-019-020-081700-
NORTHWEST INDIANA

CITY           SKY/WX    TMP DP  RH WIND       PRES   REMARKS
GARY /AIRPORT/ CLOUDY    34  21  60 W10       29.67R WCI  26
LA PORTE +     CLOUDY    33  33 100 W3        29.65R
MICHIGAN CITY+ LGT SNOW  32  30  93 W6        29.66R WCI  26
MONTICELLO +   DRIZZLE   32  29  87 SW6       29.66R WCI  26
RENSSELAER +   CLOUDY    32  27  80 W15       29.67R WCI  22
VALPARAISO     CLOUDY    32  28  85 NW12      29.65R WCI  23

$$

LMZ046-743>745-081700-
SOUTHERN LAKE MICHIGAN

STATION/POSITION TIME  TEMP    WIND        PRES    WAVE
                       AIR SEA DIR/SP/G            HT
                 (UTC) (F)     (DEG/KT/KT) (MB)    (FT)
BURNS HARBOR     1500   32     290/ 12/ 15 1004.4S
MICHIGAN CITY    1500   32     240/ 13/ 16   N/A

$$

INZ004-005-014>016-021>024-081700-
NORTH CENTRAL INDIANA

CITY           SKY/WX    TMP DP  RH WIND       PRES   REMARKS
ELKHART          N/A     32  28  86 W6        29.64S WCI  26
GOSHEN         CLOUDY    33  29  85 W10       29.64S WCI  25
LOGANSPORT +   CLOUDY    34  27  75 W5        29.66S WCI  30
PERU/GRISSOM   CLOUDY    34  30  83 W12       29.64R WCI  26
ROCHESTER +    CLOUDY    36  28  75 W7        29.65S
SOUTH BEND     CLOUDY    32  28  85 SW8       29.64S WCI  25
WARSAW +       CLOUDY    34  30  86 W7        29.64S WCI  28

$$

INZ006>009-017-018-025>027-081700-
NORTHEAST INDIANA

CITY           SKY/WX    TMP DP  RH WIND       PRES   REMARKS
ANGOLA *+      MOSUNNY   37  27  65 NW7       29.61S
AUBURN +       CLOUDY    34  30  86 W6        29.64S WCI  29
FORT WAYNE     CLOUDY    34  29  82 W9        29.65R WCI  27
HUNTINGTON +   CLOUDY    35  28  75 W6        29.64S WCI  29

$$

INZ028-029-035-036-043>045-051>053-081700-
WEST CENTRAL INDIANA

CITY           SKY/WX    TMP DP  RH WIND       PRES   REMARKS
GREENCASTLE +  CLOUDY    34  28  80 W6        29.68S WCI  29
LAFAYETTE      CLOUDY    31  29  92 NW14      29.67S FOG     WCI  21
TERRE HAUTE    CLOUDY    34  31  88 NW12      29.70S WCI  25

$$

INZ030>032-037>040-046>048-054>057-064-065-081700-
CENTRAL INDIANA

CITY           SKY/WX    TMP DP  RH WIND       PRES   REMARKS
COLUMBUS       CLOUDY    36  34  93 NW8       29.69R
FISHERS *+     CLOUDY    34  32  93 NW6       29.66F WCI  29
FRANKFORT +    PTSUNNY   35  26  69 W7        29.67F WCI  29
GREENWOOD *+   CLOUDY    36  34  93 NW6       29.67S
INDIANAPOLIS   FLURRIES  36  30  79 W8        29.66S
-EAGLE CREEK   FLURRIES  35  30  82 W7        29.66S WCI  29
KOKOMO *+        N/A     36  28  75 W9        29.65F
MARION +       CLOUDY    33  28  80 W6        29.65S WCI  28
MT COMFORT *+  CLOUDY    36  32  87 W8        29.66S
SHELBYVILLE    CLOUDY    37  32  82 W7        29.66S
ZIONSVILLE +   CLOUDY    33  30  88 W5        29.66S WCI  29

$$

INZ033-034-041-042-049-050-058-059-081700-
EAST CENTRAL INDIANA

CITY           SKY/WX    TMP DP  RH WIND       PRES   REMARKS
MUNCIE         FLURRIES  36  31  82 W9        29.65R

$$

INZ060-061-067>069-081>083-085>088-081700-
SOUTHWEST INDIANA

CITY           SKY/WX    TMP DP  RH WIND       PRES   REMARKS
EVANSVILLE     CLOUDY    39  30  70 W12G24    29.77S
HUNTINGBURG *+ CLOUDY    37  30  75 W15G22    29.74S
WASHINGTON +   FLURRIES  34  33  96 W10       29.72S WCI  26

$$

INZ062-063-066-070>080-084-089>092-081700-
SOUTH CENTRAL AND SOUTHEAST INDIANA

CITY           SKY/WX    TMP DP  RH WIND       PRES   REMARKS
BEDFORD +      CLOUDY    37  36  93 W6        29.70S
BLOOMINGTON    CLOUDY    36  32  85 W5        29.68S
MADISON *+     CLOUDY    34  32  93 SW7       29.70R WCI  28
NORTH VERNON + LGT RAIN  37  37 100 SW3       29.68S
SEYMOUR +      CLOUDY    37  36  93 W13       29.69S

$$





USA.gov is the U.S. government's official web portal to all federal, state and local government web resources and services.